This is the latest recevied weather packets stored in our database for station/object WY1B. If no packets are shown the sender has not sent any weather packets the latest 10 day(s).
| Time | Temp. | Humidity | Pressure | Rain* | Wind** | Luminosity | Snow |
|---|---|---|---|---|---|---|---|
| 1788159033 | 84° F | 55% | 753.4 mmHg | 0 in | - | 0 W/m² | - |
| 1788158728 | 84° F | 53% | 753.6 mmHg | 0 in | - | 0 W/m² | - |
| 1788158424 | 84° F | 53% | 753.2 mmHg | 0 in | - | 0 W/m² | - |
| 1788158120 | 85° F | 53% | 753.1 mmHg | 0 in | - | 0 W/m² | - |
| 1788157820 | 86° F | 49% | 753.6 mmHg | 0 in | - | 0 W/m² | - |
| 1788157514 | 89° F | 43% | 753.2 mmHg | 0 in | - | 0 W/m² | - |
| 1788157214 | 88° F | 37% | 752.8 mmHg | 0 in | - | 0 W/m² | - |
| 1788156912 | 88° F | 38% | 752.7 mmHg | 0 in | - | 0 W/m² | - |
| 1788156608 | 88° F | 35% | 752.5 mmHg | 0 in | - | 0 W/m² | - |
| 1788156303 | 88° F | 37% | 752.5 mmHg | 0 in | - | 0 W/m² | - |
| 1788156003 | 87° F | 39% | 752.7 mmHg | 0 in | - | 0 W/m² | - |
| 1788155698 | 87° F | 40% | 752.7 mmHg | 0 in | - | 0 W/m² | - |
| 1788155393 | 86° F | 41% | 752.7 mmHg | 0 in | - | 0 W/m² | - |
| 1788155088 | 85° F | 43% | 752.8 mmHg | 0 in | - | 0 W/m² | - |
| 1788154787 | 84° F | 45% | 753.1 mmHg | 0 in | - | 0 W/m² | - |
| 1788154485 | 84° F | 50% | 753.2 mmHg | 0 in | - | 0 W/m² | - |
| 1788154180 | 84° F | 51% | 753.2 mmHg | 0 in | - | 0 W/m² | - |
| 1788153879 | 82° F | 52% | 753.4 mmHg | 0.05 in | - | 0 W/m² | - |
| 1788153578 | 82° F | 55% | 753.3 mmHg | 0.05 in | - | 0 W/m² | - |
| 1788153277 | 82° F | 56% | 753.4 mmHg | 0.05 in | - | 0 W/m² | - |
| 1788152972 | 82° F | 60% | 753.9 mmHg | 0 in | - | 0 W/m² | - |
| 1788152671 | 82° F | 59% | 754.2 mmHg | 0 in | - | 0 W/m² | - |
| 1788152370 | 82° F | 55% | 754.3 mmHg | 0 in | - | 0 W/m² | - |
| 1788152069 | 82° F | 56% | 754.3 mmHg | 0 in | - | 0 W/m² | - |
| 1788151764 | 81° F | 59% | 754.3 mmHg | 0 in | - | 0 W/m² | - |
* Rain latest hour (hover to see other rain measurements)
** Current wind speed in m/s (hover to see current wind gust speed)